User: anonymous   Login
Location: Unspecified
(0.0000°N, 0.0000°E)
Time: 16:41:05
(UTC+00:00)
Language:

TIGRISAT - Orbit

View from above orbital plane
View from above orbital plane
View from above satellite
View from above satellite

Ground track
Ground track

The orbit data is extracted from the following two-line orbital elements,

1 40043U 14033AK  21336.81006390  .00000373  00000-0  61499-4 0  9990
2 40043  97.6587 171.6717 0061011  73.7024 287.0885 14.74646334400641
Epoch (UTC): 02 December 2021 19:26:29
Eccentricity: 0.0061011
inclination: 97.6587°
perigee height: 603 km
apogee height: 689 km
right ascension of ascending node: 171.6717°
argument of perigee: 73.7024°
revolutions per day: 14.74646334
mean anomaly at epoch: 287.0885°
orbit number at epoch: 40064

The dashed part of the orbit path shows where the satellite is in the earth's shadow,  

DLR